Miscellaneous Local Product
Issued by NWS Hastings, NE

Home | Current Version | Previous Version | Text Only | Print | Product List | Glossary Off
Versions: 1 2 3 4 5 6 7 8 9 10 11 12 13 14 15 16 17 18 19 20 21 22 23 24 25 26 27 28 29 30 31 32 33 34 35 36 37 38 39 40 41 42 43 44 45 46 47 48 49 50

993
AXUS43 KGID 240902
MISGRI

GID CWA HOURLY WEATHER ROUNDUP
NATIONAL WEATHER SERVICE HASTINGS NE
300 AM CST FRI FEB 24 2017

NOTE: "FAIR" INDICATES FEW OR NO CLOUDS BELOW 12,000 FEET WITH NO
SIGNIFICANT WEATHER AND/OR OBSTRUCTIONS TO VISIBILITY.

...SOUTH CENTRAL NEBRASKA...

CITY           SKY/WX    TMP DP  RH WIND       PRES   REMARKS
GRAND ISLAND   FRZ RAIN  27  26  96 N23G29    29.73R FOG     WCI  12
HASTINGS       FRZ RAIN  28  25  88 N24G30    29.72S FOG     WCI  14
KEARNEY        CLOUDY    27  21  80 N20       29.75S WCI  13
ORD            SNOW      25  21  85 N21G29    29.77R VSB 1/2 WCI  11
YORK           LGT RAIN  28  28 100 N20G29    29.67F WCI  15
AURORA         MIX PCPN  28  27  96 N18       29.70S WCI  16
LEXINGTON      LGT SNOW  25  21  85 N17       29.78R WCI  12
HOLDREGE       CLOUDY    26  24  93 N14G22    29.76R FOG     WCI  14
HEBRON         MIX PCPN  32  31  96 N14       29.67S WCI  22

...NEBRASKA PANHANDLE...

CITY           SKY/WX    TMP DP  RH WIND       PRES   REMARKS
CHADRON        LGT SNOW  22  19  89 NE10      29.97S FOG     WCI  11
ALLIANCE       LGT SNOW  20  17  88 N16       29.89R FOG     WCI   6
SCOTTSBLUFF    LGT SNOW  22  17  81 N14       29.91R WCI   9
SIDNEY         LGT SNOW  20  16  84 N15       29.86S FOG     WCI   6

...WESTERN AND NORTH CENTRAL NEBRASKA...

CITY           SKY/WX    TMP DP  RH WIND       PRES   REMARKS
VALENTINE      CLOUDY    23  19  85 N20G29    29.91R FOG     WCI   8
AINSWORTH        N/A     23  22  96 N28       29.87S WCI   6
ONEILL         CLOUDY    25  23  95 N23G30    29.83S WCI   9
BROKEN BOW     LGT SNOW  24  22  91 N24       29.78R VSB 1   WCI   8
IMPERIAL       LGT SNOW  23  19  85 N17       29.84R FOG     WCI   9
NORTH PLATTE   LGT SNOW  23  19  85 N22G30    29.81S VSB 3/4 WCI   8
MCCOOK         CLOUDY    25  21  85 N18       29.81R WCI  11

...EASTERN NEBRASKA...

CITY           SKY/WX    TMP DP  RH WIND       PRES   REMARKS
NORFOLK        LGT SNOW  26  23  88 N20G29    29.73S FOG     WCI  12
SO SIOUX CITY  SNOW      31  27  85 N23G30    29.73S VSB 1/4 WCI  18
TEKAMAH        LGT SNOW  31  29  92 N24       29.67R VSB 3/4 WCI  17
COLUMBUS       CLOUDY    28  25  86 N24G33    29.68F WCI  14
ALBION         LGT SNOW  28  23  83 N23G32    29.73S WCI  13
OMAHA EPPLEY   CLOUDY    35  29  78 N21G28    29.63R WCI  24
OFFUTT AFB     CLOUDY    35  30  83 N21G26    29.60S WCI  24
MILLARD        DRIZZLE   36  32  87 N6        29.62F WCI  31
LINCOLN        LGT SNOW  33  31  92 N17       29.64S FOG     WCI  22
NEBRASKA CITY  CLOUDY    34  34 100 N15G23    29.57S WCI  24
BEATRICE       CLOUDY    33  33  98 N14       29.62S WCI  23
FALLS CITY     CLOUDY    36  33  89 NW16      29.55S WCI  26

...NORTHERN KANSAS...

CITY           SKY/WX    TMP DP  RH WIND       PRES   REMARKS
GOODLAND       CLOUDY    23  19  85 N21       29.81R WCI   8
HILL CITY      CLOUDY    29  25  85 N18G25    29.79R WCI  16
NORTON         CLOUDY    28  21  74 NW16G22   29.78R WCI  17
PHILLIPSBURG   CLOUDY    30  27  86 NW17      29.77R WCI  18
SMITH CENTER   CLOUDY    27  25  93 N22       29.73S WCI  12
HAYS           CLOUDY    31  25  78 N18       29.76R WCI  19
RUSSELL        CLOUDY    32  27  81 NW16      29.73R WCI  21
CONCORDIA      CLOUDY    32  31  96 NW17      29.67R WCI  21
SALINA         CLOUDY    37  30  75 NW23G29   29.68R WCI  26
TOPEKA         CLOUDY    39  37  92 NW17      29.56R WCI  30



USA.gov is the U.S. government's official web portal to all federal, state and local government web resources and services.